Temperature
16 16 16 16 16 16 16 16 16 17 17 17 16 16 16 16 16 16 16 16 16 16 16 15 15 15 15 15 15 15 15 15 15 15 15 15 15 15 15 15 15 15 15
16 16 16 16 16 16 16 16 16 16 16 16 16 16 16 16 16 16 16 16 16 16 15 15 15 15 15 15 15 15 15 15 15 15 15 15 15 15 15 15 15 14 15
16 16 16 16 16 16 16 16 16 16 16 16 16 16 16 16 16 16 16 16 15 15 15 15 15 15 15 15 15 15 15 15 15 15 15 15 15 15 15 15 15 15 14
15 15 15 15 16 16 16 16 16 16 16 16 16 16 16 16 16 15 15 15 15 15 15 15 15 15 15 15 15 15 15 15 15 15 15 15 15 14 14 14 14 14 15
15 15 15 15 16 16 16 16 16 16 16 16 16 16 16 15 15 15 15 15 15 15 15 15 15 15 15 15 15 15 15 15 15 14 14 14 14 14 14 14 14 14 14
15 15 15 15 15 15 16 16 16 16 16 16 16 16 15 15 15 15 15 15 15 15 15 15 15 15 15 15 14 14 15 15 14 14 14 14 14 14 14 14 14 14 14
14 15 15 15 15 15 15 15 15 15 15 15 15 15 15 15 15 15 15 15 15 15 15 15 15 15 15 14 14 14 14 14 14 14 14 14 14 14 14 14 14 14 14
14 14 15 15 15 15 15 15 15 15 15 15 15 15 15 15 15 15 15 15 15 15 15 14 14 14 14 14 14 14 14 14 14 14 14 14 14 14 14 14 14 14 14
14 14 14 14 15 15 15 15 15 15 15 15 15 15 15 15 15 15 15 15 14 14 14 14 14 14 14 14 14 14 14 14 14 14 14 14 14 14 14 14 14 14 14
14 14 14 14 14 14 14 14 15 15 15 15 14 14 14 14 14 14 14 14 14 14 14 14 14 14 14 14 14 14 14 14 13 13 13 14 14 14 14 14 14 14 14
13 14 14 14 14 14 14 14 14 14 14 14 14 14 14 14 14 14 14 14 14 14 14 14 14 14 14 13 13 13 13 13 13 13 13 13 13 13 13 13 14 14 14
13 13 14 14 14 14 14 14 14 14 14 14 14 14 14 14 14 14 14 14 14 14 14 14 14 13 13 13 13 13 13 13 13 13 13 13 13 13 13 13 13 13 13
13 13 13 13 13 13 13 13 13 13 13 13 14 14 13 13 13 13 13 13 13 13 13 13 13 13 13 13 13 13 13 13 13 13 13 13 13 13 13 13 13 13 13
12 12 13 13 13 13 13 13 13 13 13 13 13 13 13 13 13 13 13 13 13 13 13 13 13 13 13 13 13 13 12 12 12 12 12 12 12 12 12 12 13 13 13
12 12 12 12 13 13 13 13 13 13 13 13 13 13 13 13 13 13 13 13 13 13 13 13 13 13 12 12 12 12 12 12 12 12 12 12 12 12 12 12 12 12 12
12 12 12 12 12 12 12 12 12 12 12 12 12 12 12 12 12 12 12 12 12 12 12 12 12 12 12 12 12 12 12 11 11 11 11 11 11 12 12 12 12 12 12
11 12 12 12 12 12 12 12 12 12 12 12 12 12 12 12 12 12 12 12 12 12 12 12 12 12 12 12 12 12 11 11 11 11 11 11 11 11 11 11 11 11 11
11 11 11 11 11 11 11 11 11 11 12 11 11 11 11 11 11 11 11 11 11 11 11 11 11 11 11 11 11 11 11 11 11 11 11 11 11 11 11 11 11 11 11
11 11 11 11 11 11 11 11 11 11 11 11 11 11 11 11 11 11 11 11 11 11 11 11 11 11 11 11 11 10 10 10 10 10 10 10 10 10 10 10 10 10 10
10 10 10 11 11 11 11 11 11 11 11 10 10 10 10 10 10 10 10 10 10 10 10 10 10 10 10 10 10 10 10 10 10 10 10 10 10 10 10 10 10 10 10
10 10 10 10 10 10 10 10 10 10 10 10 10 10 10 10 10 10 10 10 10 10 10 10 10 10 10 10 9 9 9 9 9 9 9 9 9 9 9 9 9 9 9
10 10 10 10 10 10 10 10 10 10 10 10 10 9 9 9 9 9 9 9 9 9 9 9 9 9 9 9 9 9 9 8 9 9 9 9 9 9 9 9 9 9 9
10 10 10 10 10 9 9 9 9 9 9 9 9 9 9 9 9 9 9 9 9 9 9 9 9 9 8 8 8 8 8 8 8 8 8 8 8 8 8 8 8 8 8
10 9 9 9 9 9 9 9 9 9 9 9 9 9 9 9 9 9 9 9 9 8 8 8 8 8 8 8 8 8 7 7 7 7 7 7 7 7 7 7 7 7 7
9 9 9 9 9 9 9 9 9 9 9 9 8 8 8 8 8 8 8 8 8 8 8 8 8 8 7 7 7 7 7 7 7 6 6 7 7 7 7 7 6 6 6
9 9 9 9 9 9 9 9 9 9 8 8 8 8 8 8 8 8 8 8 8 8 7 7 7 7 7 7 7 7 6 6 6 6 6 6 6 6 6 6 6 6 6
Wind_Speed
3 3 7 10 11 11 11 11 11 11 11 10 10 10 9 9 8 7 7 7 6 6 6 6 6 6 7 7 7 7 7 6 6 6 6 6 6 6 6 6 6 6 7
5 6 10 11 11 11 11 11 11 10 10 10 10 9 9 8 8 7 7 7 7 6 6 6 6 6 6 7 6 6 6 6 6 5 5 5 4 4 4 4 4 4 5
6 7 10 11 11 11 11 11 10 10 10 9 9 8 8 7 7 7 7 7 6 6 6 6 6 6 6 6 6 5 4 5 4 4 4 3 2 2 2 2 2 3 3
7 8 9 11 11 11 11 10 10 10 9 9 8 8 7 7 6 6 6 6 6 6 6 6 6 5 5 5 5 5 4 4 4 2 3 2 1 1 0 1 1 1 1
6 7 9 11 11 11 10 10 10 9 9 8 8 8 7 6 6 5 6 6 5 5 5 5 5 5 5 4 4 4 4 3 3 2 1 1 1 1 2 2 2 1 1
6 7 9 11 11 11 10 10 9 9 8 8 8 7 7 7 6 6 6 6 5 5 5 4 4 4 4 4 4 4 4 3 2 1 1 1 2 3 3 3 3 3 3
6 7 9 11 11 10 10 10 9 8 8 8 7 7 7 7 7 6 6 6 6 5 4 4 4 4 4 4 4 4 4 4 2 1 1 2 3 4 4 4 4 4 4
6 7 8 10 10 10 10 10 9 9 8 8 7 7 7 7 6 6 6 6 6 5 4 4 4 4 4 4 5 5 4 4 3 2 2 3 4 5 5 6 6 5 5
7 8 8 8 10 10 10 10 10 9 9 8 8 8 7 7 7 7 6 6 5 5 5 5 5 4 4 5 5 5 5 4 3 3 3 4 5 5 6 6 6 6 6
7 7 7 8 9 9 9 10 10 10 10 9 9 9 8 8 7 6 6 6 6 5 5 5 5 5 5 5 5 5 5 5 4 4 4 5 5 6 6 6 7 7 7
6 5 6 7 8 8 8 9 10 10 9 9 9 9 9 8 7 6 7 6 6 6 6 6 6 6 6 6 6 5 5 4 4 4 5 6 6 6 6 6 7 7 7
4 4 4 6 6 7 7 8 8 8 9 9 9 9 8 8 7 6 6 7 7 6 7 7 7 7 6 5 5 5 4 4 4 4 5 6 6 6 6 6 6 5 6
3 4 4 5 6 6 6 6 7 7 8 8 8 8 8 7 7 7 6 7 7 6 6 6 7 6 5 5 4 4 4 4 4 4 6 6 6 6 6 6 5 5 5
4 4 4 4 5 5 6 5 5 5 5 6 7 7 7 6 6 6 5 5 6 5 5 5 5 6 5 5 4 4 4 4 4 4 6 6 6 6 6 6 6 6 5
4 3 3 4 4 4 5 4 5 4 5 5 6 7 7 5 3 4 4 5 5 5 5 4 4 4 4 4 4 4 3 4 4 4 5 6 6 6 6 6 6 6 6
3 3 3 4 4 5 4 3 3 4 5 6 6 7 7 6 4 4 4 4 5 5 5 4 3 3 3 3 3 4 3 3 4 4 5 5 6 6 6 6 6 7 7
3 3 3 3 4 5 4 4 4 4 5 5 6 7 7 7 6 5 3 3 5 6 5 4 4 3 2 3 4 3 3 3 3 4 4 5 5 7 7 7 7 7 8
3 3 3 3 4 4 4 3 4 5 5 5 5 6 7 7 6 5 3 3 6 6 5 3 3 3 3 3 3 3 3 3 3 4 4 5 5 6 7 9 9 10 10
3 3 3 4 4 3 4 4 4 5 4 5 5 6 6 6 6 5 4 4 6 4 4 3 3 2 3 4 3 3 3 3 3 4 4 5 6 7 7 8 10 12 12
2 2 3 3 3 3 3 3 3 3 3 4 4 5 5 5 5 5 4 5 6 3 3 3 3 3 2 3 2 2 2 2 3 4 4 5 7 8 9 9 9 9 11
2 2 2 2 2 2 2 2 2 1 2 2 3 5 5 5 5 5 4 4 4 3 3 3 2 3 3 3 2 2 2 2 3 3 4 4 6 8 9 10 10 9 10
2 2 2 2 1 1 1 1 1 0 0 1 2 4 5 5 5 3 3 2 3 2 3 3 3 2 2 3 2 1 2 2 3 3 4 4 5 6 8 10 11 11 11
3 3 2 2 2 1 2 2 2 2 2 2 2 2 3 4 4 3 3 2 2 2 2 2 2 2 1 2 2 1 0 2 2 2 3 4 5 5 5 7 10 11 11
4 3 2 2 2 1 2 2 1 1 1 2 1 1 2 3 3 3 2 2 2 2 2 2 2 1 0 1 1 1 0 1 1 2 2 2 4 4 4 5 6 8 10
3 3 2 2 1 1 2 2 2 1 2 1 1 2 2 2 2 2 2 2 2 1 2 2 1 1 0 0 0 1 1 1 0 1 2 3 2 2 3 3 4 6 9
2 2 2 2 2 1 2 2 2 3 2 2 2 2 2 1 2 2 2 1 1 1 1 1 1 1 1 0 0 0 0 0 1 1 2 2 3 2 1 2 3 5 8
Wind_Direction
166 174 146 135 127 125 119 113 109 105 103 103 105 104 101 97 94 93 91 84 76 72 66 66 66 68 68 68 68 65 66 68 74 74 67 63 65 69 71 72 70 66 70
146 147 140 133 125 122 119 112 107 104 101 100 99 100 98 93 87 84 84 78 71 67 63 63 61 61 60 59 58 58 60 65 73 74 69 61 60 65 73 78 75 75 74
128 131 133 128 121 117 117 113 109 105 101 98 97 97 95 91 86 82 83 77 70 64 59 58 57 55 53 50 49 49 51 55 65 71 68 57 57 69 82 88 83 77 81
122 121 125 124 120 115 111 110 107 104 100 97 96 94 92 91 87 82 80 76 70 64 58 53 49 51 48 45 40 35 34 38 44 57 63 51 49 55 46 166 161 99 97
106 109 120 122 119 115 111 106 103 102 100 97 94 91 87 86 84 78 71 68 66 61 56 49 44 45 40 35 31 22 18 22 32 47 59 23 296 273 274 252 232 221 219
96 101 119 120 118 115 110 108 104 98 97 94 91 88 84 82 81 74 66 62 58 57 53 43 35 31 23 19 13 11 11 9 13 37 22 304 285 274 267 259 249 237 239
97 91 112 117 115 112 109 105 101 98 92 92 89 86 82 77 77 73 64 57 52 49 47 37 27 19 12 6 359 0 6 9 8 360 293 285 277 280 276 270 263 250 242
101 85 100 112 109 107 105 101 98 93 91 86 85 82 80 79 75 73 64 58 52 45 38 30 22 14 9 4 1 1 3 4 356 329 289 275 276 283 281 277 272 261 254
80 78 74 92 101 101 98 97 94 90 86 83 80 77 76 76 75 71 63 57 50 41 33 23 15 9 5 3 2 5 5 359 351 323 300 281 278 282 282 276 270 263 255
70 67 66 70 83 89 90 93 91 87 84 81 78 73 70 68 66 65 59 53 46 38 29 20 13 6 2 360 359 358 358 359 349 324 303 289 284 283 284 280 272 263 258
67 58 59 63 65 77 87 86 85 83 79 77 73 70 64 57 54 51 48 47 42 36 28 22 16 14 12 7 5 1 357 351 339 322 307 300 294 290 291 287 281 267 262
81 59 55 60 62 68 83 80 76 76 73 68 66 65 59 54 49 46 44 41 35 31 24 20 20 20 17 8 2 3 356 339 332 320 311 312 307 301 299 298 295 284 275
93 64 50 57 63 69 72 77 71 70 68 64 61 61 59 53 44 37 35 29 25 23 17 9 12 9 5 359 351 348 344 338 327 321 317 316 314 310 312 314 309 302 292
92 74 54 57 60 65 73 77 75 68 64 57 54 56 58 49 39 31 28 20 21 14 6 4 358 352 354 354 351 345 341 334 328 324 327 330 328 326 328 326 324 318 309
104 87 60 61 61 63 68 68 71 65 65 62 59 56 59 54 40 29 21 21 16 11 5 356 353 349 350 351 353 351 340 336 336 335 331 347 354 0 359 352 347 339 331
117 100 70 63 60 64 65 65 70 67 65 63 55 53 57 57 49 34 21 15 11 5 358 352 346 340 337 347 347 349 342 344 350 349 342 344 358 3 5 360 354 347 349
121 104 90 84 63 63 62 59 74 70 66 57 51 53 55 55 52 43 27 12 0 2 5 6 1 360 0 359 347 346 357 3 10 6 358 357 1 8 15 18 17 11 3
117 104 89 84 73 63 59 60 67 70 67 56 50 50 52 52 52 48 33 9 2 13 16 11 5 1 1 358 347 341 353 9 15 17 20 19 20 17 19 27 27 24 19
128 114 96 84 84 73 67 66 64 64 60 51 47 44 44 47 47 48 34 13 11 21 22 14 16 8 355 351 343 343 351 1 7 29 34 30 28 29 26 27 32 29 25
121 109 102 88 80 75 67 62 53 47 40 39 38 37 41 40 42 43 34 20 19 27 21 15 10 9 354 340 346 357 355 5 26 37 36 37 38 38 38 35 29 24 25
117 112 106 104 92 86 71 68 55 28 6 10 21 28 31 31 33 40 29 20 22 26 16 8 5 12 9 355 6 357 359 27 49 41 43 47 42 40 42 39 36 33 26
158 157 149 148 139 128 107 109 116 112 356 353 1 17 24 22 19 26 29 22 20 15 20 19 26 16 9 18 18 358 338 341 29 35 39 50 41 43 46 42 41 37 31
194 193 191 187 177 153 117 90 68 55 27 14 3 352 358 6 11 16 15 22 18 23 8 5 18 49 4 357 23 51 20 283 324 356 34 43 38 37 36 42 40 34 32
210 196 190 183 179 163 137 133 142 170 237 257 269 295 320 344 351 357 5 15 16 17 4 349 28 23 52 333 347 13 193 214 272 317 339 17 29 38 31 35 33 28 27
193 179 186 185 189 169 152 163 166 204 228 259 275 294 317 330 332 339 349 3 12 17 357 359 16 25 69 243 293 324 0 8 198 223 283 318 352 20 27 26 28 25 23
175 170 176 187 217 199 177 180 191 219 236 264 281 275 287 299 304 315 319 328 338 357 343 335 5 30 32 86 251 237 217 262 272 235 258 288 305 307 6 22 26 21 21
Height
1522 1524 1526 1528 1530 1531 1533 1534 1535 1536 1537 1538 1539 1539 1540 1540 1540 1541 1541 1541 1542 1542 1542 1542 1543 1543 1543 1543 1543 1543 1543 1543 1543 1543 1543 1543 1543 1543 1543 1543 1543 1543 1544
1521 1524 1526 1528 1530 1531 1533 1534 1535 1536 1537 1538 1539 1539 1540 1540 1541 1541 1541 1541 1542 1542 1542 1543 1543 1543 1543 1543 1543 1543 1543 1543 1543 1543 1543 1543 1543 1543 1543 1543 1544 1544 1544
1521 1523 1526 1528 1530 1531 1533 1534 1535 1536 1537 1538 1539 1539 1540 1540 1541 1541 1541 1541 1542 1542 1542 1542 1542 1543 1543 1543 1543 1543 1543 1543 1543 1543 1543 1543 1544 1544 1544 1544 1544 1544 1544
1521 1523 1525 1527 1529 1531 1533 1534 1535 1536 1537 1538 1538 1539 1540 1540 1540 1541 1541 1541 1541 1542 1542 1542 1542 1542 1542 1542 1543 1543 1543 1543 1543 1543 1543 1543 1543 1543 1543 1543 1544 1544 1544
1521 1523 1525 1527 1529 1531 1532 1534 1535 1536 1537 1538 1538 1539 1539 1540 1540 1540 1540 1541 1541 1541 1541 1541 1541 1542 1542 1542 1542 1542 1542 1542 1542 1542 1542 1543 1543 1543 1543 1543 1543 1543 1543
1521 1523 1525 1527 1529 1531 1532 1533 1535 1536 1536 1537 1538 1538 1539 1539 1539 1540 1540 1540 1540 1540 1540 1540 1540 1541 1541 1541 1541 1541 1541 1541 1541 1542 1542 1542 1542 1542 1542 1542 1543 1543 1543
1521 1523 1526 1527 1529 1530 1532 1533 1534 1535 1536 1537 1537 1538 1538 1539 1539 1539 1539 1539 1539 1539 1539 1539 1539 1539 1540 1540 1540 1540 1540 1540 1540 1540 1540 1541 1541 1541 1541 1541 1542 1542 1542
1521 1523 1526 1527 1529 1530 1531 1533 1534 1535 1535 1536 1537 1537 1538 1538 1538 1538 1538 1538 1539 1538 1538 1538 1538 1538 1538 1538 1538 1538 1538 1538 1538 1539 1539 1539 1539 1539 1540 1540 1540 1540 1540
1521 1523 1525 1527 1528 1530 1531 1532 1533 1534 1535 1535 1536 1536 1537 1537 1537 1537 1537 1537 1537 1537 1537 1537 1537 1537 1537 1537 1537 1537 1537 1537 1537 1537 1537 1537 1537 1538 1538 1538 1538 1539 1539
1521 1523 1525 1526 1528 1529 1530 1532 1532 1533 1534 1534 1535 1535 1536 1536 1536 1536 1536 1536 1536 1536 1536 1536 1535 1535 1535 1535 1535 1535 1535 1535 1535 1535 1535 1535 1535 1536 1536 1536 1536 1537 1537
1520 1522 1524 1525 1527 1528 1530 1531 1532 1533 1533 1534 1534 1534 1535 1535 1535 1535 1535 1535 1535 1535 1534 1534 1534 1533 1533 1533 1533 1533 1533 1533 1533 1533 1533 1533 1533 1533 1533 1533 1534 1534 1534
1519 1521 1523 1524 1526 1527 1529 1530 1531 1532 1532 1533 1533 1533 1534 1534 1534 1534 1534 1534 1534 1533 1533 1533 1532 1532 1531 1531 1531 1531 1531 1531 1530 1530 1530 1531 1531 1531 1531 1531 1531 1532 1532
1519 1521 1522 1524 1525 1526 1528 1529 1530 1531 1531 1532 1532 1532 1532 1533 1533 1533 1532 1532 1532 1532 1531 1531 1530 1530 1529 1529 1529 1529 1529 1528 1528 1528 1528 1528 1528 1528 1528 1529 1529 1529 1529
1519 1520 1521 1523 1524 1526 1527 1528 1529 1530 1530 1531 1531 1531 1531 1531 1531 1531 1531 1531 1530 1530 1530 1529 1529 1528 1528 1527 1527 1527 1526 1526 1526 1526 1526 1526 1525 1526 1526 1526 1526 1526 1526
1519 1520 1521 1522 1524 1525 1526 1527 1528 1529 1529 1530 1530 1530 1530 1530 1530 1530 1529 1529 1529 1528 1528 1527 1527 1526 1526 1525 1525 1525 1524 1524 1524 1524 1523 1523 1523 1523 1523 1523 1523 1523 1523
1519 1520 1521 1522 1523 1524 1525 1526 1527 1528 1528 1529 1529 1529 1529 1529 1529 1528 1528 1527 1527 1527 1526 1526 1525 1524 1524 1523 1523 1523 1522 1522 1522 1521 1521 1521 1521 1521 1520 1520 1520 1520 1520
1518 1519 1520 1521 1522 1523 1524 1525 1525 1526 1527 1527 1528 1528 1528 1527 1527 1527 1526 1526 1525 1525 1525 1524 1523 1523 1522 1521 1521 1521 1520 1520 1520 1519 1519 1519 1518 1518 1518 1518 1518 1517 1517
1518 1519 1520 1521 1522 1522 1523 1523 1524 1525 1526 1526 1526 1526 1526 1526 1526 1526 1525 1524 1524 1523 1523 1522 1521 1521 1520 1519 1519 1518 1518 1518 1518 1518 1517 1517 1516 1516 1516 1515 1515 1515 1514
1518 1518 1519 1520 1521 1522 1522 1522 1522 1523 1524 1525 1525 1525 1525 1525 1524 1524 1524 1523 1522 1522 1521 1520 1520 1519 1518 1517 1517 1516 1516 1516 1516 1516 1515 1515 1514 1514 1513 1513 1512 1512 1511
1518 1518 1519 1519 1520 1521 1521 1521 1521 1522 1523 1523 1523 1523 1523 1523 1523 1522 1522 1521 1521 1520 1519 1519 1518 1517 1516 1516 1515 1514 1514 1514 1514 1513 1513 1513 1512 1512 1511 1511 1510 1509 1509
1517 1518 1518 1519 1519 1520 1520 1520 1520 1521 1521 1522 1522 1522 1521 1521 1521 1521 1520 1520 1519 1518 1517 1517 1516 1516 1515 1514 1514 1513 1512 1512 1512 1511 1511 1511 1510 1509 1509 1508 1507 1507 1506
1516 1517 1518 1518 1519 1519 1519 1519 1519 1520 1520 1520 1520 1520 1520 1519 1519 1519 1519 1518 1518 1517 1516 1515 1515 1514 1513 1513 1512 1511 1511 1511 1510 1509 1509 1508 1508 1507 1506 1506 1505 1504 1503
1515 1516 1517 1517 1518 1518 1517 1518 1518 1518 1518 1519 1519 1519 1518 1518 1518 1517 1517 1516 1516 1515 1514 1513 1513 1512 1512 1511 1511 1511 1510 1509 1508 1507 1506 1506 1505 1505 1504 1503 1502 1502 1501
1513 1514 1515 1516 1516 1516 1516 1516 1517 1517 1517 1517 1517 1517 1516 1516 1516 1515 1515 1514 1513 1513 1512 1512 1511 1510 1510 1509 1509 1509 1509 1508 1507 1505 1505 1504 1503 1502 1501 1500 1500 1499 1498
1511 1512 1513 1514 1514 1514 1514 1515 1515 1515 1515 1515 1515 1514 1514 1514 1514 1513 1513 1512 1512 1511 1510 1510 1509 1508 1508 1507 1506 1506 1505 1505 1505 1504 1502 1501 1501 1500 1499 1498 1497 1496 1495
1509 1510 1511 1512 1512 1513 1513 1513 1513 1513 1513 1513 1512 1512 1512 1512 1512 1511 1511 1510 1510 1509 1508 1507 1506 1505 1505 1504 1504 1503 1503 1503 1502 1501 1499 1498 1497 1497 1496 1495 1494 1493 1492